Terminal Aerodrome Forecast
Issued by NWS

Home | Current Version | Previous Version | Text Only | Print | Product List | Glossary On
Versions: 1 2 3 4 5 6 7 8 9 10 11 12 13
000
FTUS44 KCRP 282331
TAFLRD
TAF
KLRD 282331Z 2900/2924 15016G21KT P6SM SCT050 BKN250
     FM290600 12010KT P6SM VCTS BKN015 BKN035CB
     FM291200 15013KT P6SM BKN035
     FM291600 15015G22KT P6SM BKN045=

USA.gov is the U.S. government's official web portal to all federal, state and local government web resources and services.